Weather in Los Mochis

Mexico     25°47′24″N   108°59′39″W
temp.,
°C
wind,
m/s
gust,
m/s
humid.,
%
clouds,
%
prec.,
mm/h
press.,
hPa
HPBL,
m
5 march, fri
fri523:00+14nw358167 0.0 101780
02:00+14nw358485 0.0 101672
05:00+13nw348574 0.0 101468
08:00+17nnw476030 0.0 1015285
11:00+28nw662118 0.0 1014753
14:00+29nw77210 0.0 1011817
17:00+24wnw79350 0.0 1010429
20:00+15nw45760 0.0 101289
6 march, sat
sat623:00+13nnw238232 0.0 101227
02:00+14wnw348471 0.0 101159
05:00+13nw238786 0.0 101125
08:00+18nw236376 0.0 1013146
11:00+29wnw332263 0.0 1013837
14:00+31w751735 0.0 1011972
17:00+26wnw782433 0.0 1010448
20:00+16nw335887 0.0 101230
7 march, sun
sun723:00+13nw116350 0.0 101323
02:00+12wnw116333 0.0 101323
05:00+12ene126327 0.0 101323
08:00+17e23390 0.0 1015114
11:00+28s23160 0.0 1016841
14:00+31sw64160 0.0 10141032
17:00+25w562546 0.0 1014383
20:00+16nnw2250100 0.0 101623
8 march, mon
mon823:00+15nne1248100 0.0 101723
02:00+14wnw114667 0.0 101623
05:00+14nnw114454 0.0 101623
08:00+20ene1127100 0.0 101852
11:00+30s221499 0.0 1018838
14:00+31wsw6514100 0.0 1016672
17:00+28w5517100 0.0 1015421
20:00+19nw3433100 0.0 101636
9 march, tue
tue923:00+16nne223098 0.0 101623
02:00+15wnw123669 0.0 101523
05:00+14nnw123878 0.0 101523
08:00+20n112599 0.0 101742
11:00+32w111099 0.0 1017707
14:00+34w65999 0.0 10151075
17:00+31wnw661194 0.0 1014531
20:00+19nw3432100 0.0 101554